This is the latest recevied weather packets stored in our database for station/object IQ5KG. If no packets are shown the sender has not sent any weather packets the latest 1 day(s).
| Time | Temp. | Humidity | Pressure | Rain* | Wind** | Luminosity | Snow |
|---|---|---|---|---|---|---|---|
| 1778045547 | 13.33° C | 99% | 1010.9 hPa | 25.4 mm | - | - | - |
| 1778044647 | 13.33° C | 99% | 1010.9 hPa | 30.48 mm | - | - | - |
| 1778043746 | 13.33° C | 99% | 1010.8 hPa | 30.99 mm | - | - | - |
| 1778041946 | 13.33° C | 99% | 1010.8 hPa | 11.68 mm | - | - | - |
| 1778040147 | 13.33° C | 99% | 1010.7 hPa | 11.68 mm | - | - | - |
| 1778039246 | 13.33° C | 99% | 1010.5 hPa | 21.59 mm | - | - | - |
| 1778037447 | 13.33° C | 99% | 1011.3 hPa | 24.64 mm | - | - | - |
| 1778035645 | 13.33° C | 99% | 1011.3 hPa | 8.38 mm | - | - | - |
| 1778033846 | 13.33° C | 99% | 1011.1 hPa | 1.27 mm | - | - | - |
| 1778032046 | 13.33° C | 99% | 1011.5 hPa | 9.4 mm | - | - | - |
| 1778031145 | 13.33° C | 99% | 1011.2 hPa | 9.4 mm | - | - | - |
| 1778030245 | 13.33° C | 99% | 1011.5 hPa | 10.41 mm | - | - | - |
| 1778029344 | 12.78° C | 99% | 1012.1 hPa | 7.62 mm | - | - | - |
| 1778027545 | 12.22° C | 99% | 1012.3 hPa | 9.4 mm | - | - | - |
| 1778026645 | 12.78° C | 99% | 1012.6 hPa | 13.72 mm | - | - | - |
| 1778024845 | 13.89° C | 99% | 1012.6 hPa | 15.24 mm | - | - | - |
| 1778022143 | 15° C | 99% | 1012.6 hPa | 1.52 mm | - | - | - |
| 1778020343 | 15° C | 99% | 1013 hPa | 0 mm | - | - | - |
| 1778017642 | 15.56° C | 99% | 1013.1 hPa | 4.32 mm | - | - | - |
| 1778016742 | 15.56° C | 99% | 1013.5 hPa | 5.08 mm | - | - | - |
| 1778015843 | 15.56° C | 98% | 1013.2 hPa | 5.08 mm | - | - | - |
| 1778014942 | 15.56° C | 98% | 1013.7 hPa | 5.08 mm | - | - | - |
| 1778010442 | 16.11° C | 97% | 1013.8 hPa | 14.48 mm | - | - | - |
| 1778008642 | 16.67° C | 95% | 1013.2 hPa | 2.29 mm | - | - | - |
* Rain latest hour (hover to see other rain measurements)
** Current wind speed in m/s (hover to see current wind gust speed)